Main page
METAR-TAF:

METAR-TAF

Airports :

Carmi Municipal Airport

Carmi, Illinois, United States

latitude: 38-05-22N, longitude: 088-07-23W, elevation: 387 ft

Current weather observation

The report was made 28 minutes ago, at 15:17 UTC
Wind 8 mph from the North
Temperature 73°F
Humidity 78%
Pressure 29.93 in. Hg
Visibility: 10 miles
Broken clouds at a height of 1900 ft
Broken clouds at a height of 2400 ft

METAR: KCUL 281517Z AUTO 36007KT 10SM BKN019 BKN024 23/19 A2993 RMK AO2

Time: 10:45 (15:45 UTC)


TAF: missing

Weather observations and forecasts of more than 4000 airports (METAR and TAF reports).

The available stations are represented by yellow and red dots on the map.

Hover mouse over dot to see the name of the station.

Then click to see weather observations and forecasts.

To change the map : click on the green buttons with a black cross to zoom in, on the green button with a dash to zoom out, or on the green arrows for adjacent maps.


METAR-TAF: